Location: ????????????????
(44.2705°N, 135.0091°E)
Time: 00:11:40
(UTC+00:00)

Daily predictions for brighter satellites

Satellite Brightness Start Highest point End
(mag) Time Altitude Azimuth Time Altitude Azimuth Time Altitude Azimuth
MOS 1-B 4.4 11:11:39 10° SSE 11:17:23 70° ENE 11:23:08 10° N
NOSS 3-4 (A) 3.1 11:13:17 10° SSW 11:18:30 64° ESE 11:24:12 10° NE
NOSS 3-4 (C) 3.1 11:13:24 10° SSW 11:18:37 63° ESE 11:24:17 10° NE
Lacrosse 4 Rocket 3.2 11:16:47 10° N 11:19:59 20° NE 11:23:11 10° E
ERS-1 Rocket 3.2 11:17:25 10° SSE 11:22:18 57° ENE 11:27:13 10° N
Cosmos 1666 Rocket 4.3 11:19:17 10° N 11:23:28 38° ENE 11:27:37 10° SE
Cosmos 1980 3.9 11:20:28 10° NNW 11:26:06 63° ENE 11:31:41 10° SE
ATLAS CENTAUR R/B 2.6 11:24:27 10° NNW 11:27:46 27° NE 11:31:01 10° ESE
CZ-4B R/B 3.6 11:24:09 10° S 11:29:24 64° WSW 11:34:40 10° NNW
COSMOS 2455 3.3 11:23:33 10° NNW 11:29:26 52° NE 11:35:19 10° SE
Okean-O 2.7 11:27:23 10° SSE 11:31:42 63° ENE 11:36:03 10° N
Cosmos 1633 Rocket 3.7 11:28:56 10° N 11:32:59 39° ENE 11:37:02 10° SE
Cosmos 1727 Rocket 4.2 11:29:35 10° SSE 11:35:31 52° E 11:41:28 10° NNE
Cosmos 1758 4.5 11:32:53 10° NNE 11:36:00 24° ENE 11:38:54 11° SE
Cosmos 1300 2.3 11:33:03 10° NNW 11:36:12 74° W 11:39:18 10° S
ARIANE 6 FM1 Upper Stage 2.7 11:33:06 10° NW 11:37:15 89° ENE 11:41:19 11° SE
Pegasus R/B 4.5 11:35:40 10° NNE 11:38:41 80° ESE 11:41:41 10° S
USA 186 4.2 11:41:01 10° SW 11:42:58 17° W 11:44:54 10° NW
Cosmos 1328 Rocket 3.7 11:39:11 10° S 11:43:28 58° E 11:47:48 10° NNE
Cosmos 2100 Rocket 4.4 11:39:39 10° N 11:45:34 46° ENE 11:51:06 11° SSE
CZ-4 R/B 4.0 11:48:20 10° SW 11:50:25 14° W 11:52:30 10° WNW
In-Cosmos 22 4.2 11:47:27 10° S 11:53:11 80° E 11:58:50 10° NNE
Cosmos 1470 Rocket 4.1 11:50:06 10° N 11:54:14 42° ENE 11:57:38 14° SE
Helios 1A 2.9 11:50:33 10° NNE 11:54:31 82° WNW 11:58:27 10° SSW
